�������l�o���
Date,Time,MP-1(��Sv/h),MP-2(��Sv/h),MP-3(��Sv/h),MP-4(��Sv/h),MP-5(��Sv/h),MP-6(��Sv/h),MP-7(��Sv/h),MP-8(��Sv/h),����,����(m/s),���J
2021/02/09,00:00,0.669,0.966,0.610,1.216,0.854,0.379,0.672,0.631,���k��,7.2,�L
2021/02/09,00:10,0.668,0.964,0.610,1.216,0.853,0.379,0.670,0.631,���k��,7.7,�L
2021/02/09,00:20,0.668,0.963,0.611,1.215,0.853,0.378,0.670,0.631,���k��,7.3,�L
2021/02/09,00:30,0.668,0.962,0.610,1.216,0.854,0.380,0.670,0.631,���k��,9.6,�L
2021/02/09,00:40,0.669,0.963,0.611,1.213,0.853,0.379,0.670,0.631,���k��,9.1,�L
2021/02/09,00:50,0.669,0.963,0.611,1.213,0.851,0.381,0.668,0.632,���k��,9.2,�L
2021/02/09,01:00,0.666,0.960,0.610,1.210,0.849,0.380,0.667,0.630,���k��,7.8,�L
2021/02/09,01:10,0.669,0.963,0.606,1.211,0.849,0.379,0.667,0.631,�k��,7.4,��
2021/02/09,01:20,0.668,0.959,0.608,1.210,0.849,0.379,0.667,0.631,���k��,7.3,��
2021/02/09,01:30,0.668,0.959,0.606,1.211,0.847,0.377,0.666,0.630,���k��,7.5,��
2021/02/09,01:40,0.667,0.958,0.605,1.211,0.847,0.378,0.667,0.630,�k��,5.7,��
2021/02/09,01:50,0.666,0.958,0.607,1.211,0.848,0.375,0.667,0.630,�k��,6.0,��
2021/02/09,02:00,0.666,0.958,0.606,1.210,0.845,0.377,0.669,0.631,�k��,7.2,��
2021/02/09,02:10,0.665,0.958,0.607,1.207,0.844,0.377,0.669,0.631,�k��,7.4,��
2021/02/09,02:20,0.666,0.957,0.606,1.207,0.846,0.376,0.669,0.630,���k��,6.7,��
2021/02/09,02:30,0.664,0.959,0.605,1.207,0.844,0.377,0.668,0.631,���k��,6.5,��
2021/02/09,02:40,0.666,0.957,0.606,1.207,0.846,0.376,0.668,0.630,��,7.6,��
2021/02/09,02:50,0.666,0.955,0.608,1.208,0.846,0.377,0.669,0.627,��,7.2,��
2021/02/09,03:00,0.666,0.958,0.605,1.210,0.845,0.376,0.667,0.632,��,6.9,��
2021/02/09,03:10,0.665,0.958,0.608,1.207,0.844,0.376,0.668,0.630,���k��,7.3,��
2021/02/09,03:20,0.666,0.958,0.606,1.210,0.844,0.376,0.668,0.629,���k��,7.0,��
2021/02/09,03:30,0.665,0.957,0.605,1.206,0.844,0.377,0.668,0.628,��,7.0,��
2021/02/09,03:40,0.663,0.956,0.607,1.208,0.845,0.376,0.668,0.630,��,7.0,��
2021/02/09,03:50,0.665,0.956,0.606,1.208,0.843,0.377,0.669,0.630,��,7.6,��
2021/02/09,04:00,0.664,0.957,0.604,1.207,0.844,0.376,0.667,0.629,��,7.2,��
2021/02/09,04:10,0.665,0.958,0.605,1.207,0.844,0.376,0.668,0.631,��,6.9,��
2021/02/09,04:20,0.666,0.955,0.606,1.206,0.844,0.377,0.667,0.630,��,6.8,��
2021/02/09,04:30,0.664,0.957,0.607,1.209,0.843,0.375,0.668,0.629,��,7.4,��
2021/02/09,04:40,0.665,0.956,0.606,1.208,0.844,0.375,0.669,0.630,��,7.4,��
2021/02/09,04:50,0.664,0.957,0.604,1.208,0.844,0.376,0.668,0.629,��,7.1,��
2021/02/09,05:00,0.664,0.957,0.604,1.206,0.844,0.376,0.667,0.630,��,6.8,��
2021/02/09,05:10,0.664,0.957,0.605,1.208,0.844,0.376,0.669,0.630,���k��,7.3,��
2021/02/09,05:20,0.664,0.958,0.605,1.207,0.845,0.375,0.669,0.629,��,7.2,��
2021/02/09,05:30,0.666,0.956,0.605,1.209,0.842,0.376,0.669,0.630,��,6.8,��
2021/02/09,05:40,0.664,0.955,0.604,1.208,0.843,0.376,0.669,0.629,��,7.4,��
2021/02/09,05:50,0.665,0.956,0.605,1.204,0.842,0.377,0.668,0.628,��,7.4,��
2021/02/09,06:00,0.664,0.956,0.605,1.210,0.844,0.374,0.669,0.630,��,6.7,��
2021/02/09,06:10,0.663,0.955,0.604,1.205,0.843,0.375,0.669,0.630,���k��,5.6,��
2021/02/09,06:20,0.666,0.955,0.603,1.209,0.844,0.376,0.667,0.631,���k��,6.2,��
2021/02/09,06:30,0.665,0.956,0.604,1.208,0.843,0.377,0.667,0.629,���k��,5.8,��
2021/02/09,06:40,0.665,0.958,0.605,1.208,0.842,0.376,0.669,0.629,���k��,4.8,��
2021/02/09,06:50,0.664,0.956,0.604,1.207,0.842,0.376,0.668,0.631,���k��,5.4,��
2021/02/09,07:00,0.664,0.955,0.604,1.207,0.843,0.375,0.669,0.630,���k��,5.1,��
2021/02/09,07:10,0.665,0.956,0.604,1.209,0.844,0.374,0.668,0.631,���k��,6.0,��
2021/02/09,07:20,0.666,0.955,0.604,1.207,0.844,0.377,0.669,0.630,���k��,5.9,��
2021/02/09,07:30,0.666,0.955,0.605,1.209,0.846,0.375,0.668,0.630,���k��,5.3,��
2021/02/09,07:40,0.664,0.954,0.606,1.207,0.842,0.376,0.669,0.630,���k��,6.2,��
2021/02/09,07:50,0.666,0.956,0.605,1.208,0.844,0.376,0.669,0.629,��,5.9,��
2021/02/09,08:00,0.666,0.954,0.604,1.210,0.844,0.375,0.669,0.631,���k��,5.6,��
2021/02/09,08:10,0.666,0.956,0.605,1.208,0.843,0.374,0.668,0.630,���k��,5.3,��
2021/02/09,08:20,0.667,0.956,0.606,1.211,0.843,0.375,0.668,0.630,��,3.4,��
2021/02/09,08:30,0.665,0.956,0.605,1.208,0.845,0.375,0.669,0.630,��,3.6,��
2021/02/09,08:40,0.667,0.955,0.606,1.210,0.844,0.375,0.670,0.631,���k��,5.4,��
2021/02/09,08:50,0.668,0.956,0.606,1.209,0.844,0.376,0.669,0.630,���k��,4.7,��
2021/02/09,09:00,0.667,0.956,0.607,1.208,0.846,0.377,0.670,0.631,��,5.3,��
2021/02/09,09:10,0.666,0.954,0.609,1.208,0.845,0.375,0.671,0.630,��,6.4,��
2021/02/09,09:20,0.667,0.957,0.606,1.209,0.844,0.376,0.670,0.630,���k��,6.2,��
2021/02/09,09:30,0.667,0.955,0.606,1.208,0.847,0.376,0.671,0.630,��,6.6,��
2021/02/09,09:40,0.668,0.955,0.604,1.211,0.844,0.377,0.670,0.631,���k��,6.3,��
2021/02/09,09:50,0.669,0.957,0.607,1.211,0.846,0.377,0.668,0.631,��,6.9,��
2021/02/09,10:00,0.666,0.958,0.608,1.210,0.846,0.376,0.668,0.631,��,7.5,��
2021/02/09,10:10,0.669,0.957,0.606,1.209,0.847,0.376,0.669,0.631,��,10.2,��
2021/02/09,10:20,0.666,0.959,0.609,1.208,0.846,0.377,0.667,0.631,��,9.1,��
2021/02/09,10:30,0.666,0.956,0.608,1.209,0.848,0.377,0.669,0.632,���k��,7.2,��
2021/02/09,10:40,0.661,0.959,0.607,1.209,0.851,0.377,0.671,0.631,��,4.8,��
2021/02/09,10:50,0.662,0.961,0.606,1.212,0.849,0.377,0.669,0.630,��,5.6,��
2021/02/09,11:00,0.661,0.959,0.608,1.209,0.850,0.377,0.670,0.631,���k��,4.1,��
2021/02/09,11:10,0.665,0.957,0.609,1.213,0.849,0.377,0.668,0.632,��,3.8,��
2021/02/09,11:20,0.669,0.957,0.609,1.213,0.853,0.377,0.670,0.629,��,4.7,��
2021/02/09,11:30,0.667,0.959,0.609,1.211,0.852,0.378,0.671,0.631,�k�k��,2.9,��
2021/02/09,11:40,0.669,0.962,0.609,1.213,0.853,0.378,0.670,0.631,�k��,4.3,��
2021/02/09,11:50,0.665,0.959,0.609,1.212,0.853,0.376,0.670,0.632,���k��,10.2,��
2021/02/09,12:00,0.666,0.962,0.609,1.212,0.853,0.377,0.670,0.632,���k��,7.2,��
2021/02/09,12:10,0.668,0.959,0.610,1.209,0.855,0.378,0.669,0.631,���k��,9.7,��
2021/02/09,12:20,0.670,0.960,0.609,1.210,0.854,0.377,0.671,0.632,�k��,7.8,��
2021/02/09,12:30,0.669,0.965,0.611,1.214,0.855,0.379,0.671,0.632,�k�k��,6.1,��
2021/02/09,12:40,0.670,0.962,0.610,1.213,0.856,0.378,0.672,0.633,�k�k��,5.9,��
2021/02/09,12:50,0.668,0.964,0.610,1.213,0.856,0.378,0.673,0.633,�k�k��,5.9,��
2021/02/09,13:00,0.670,0.964,0.609,1.216,0.855,0.377,0.671,0.633,�k,4.8,��
2021/02/09,13:10,0.668,0.962,0.611,1.213,0.854,0.379,0.671,0.635,�k�k��,4.4,��
2021/02/09,13:20,0.669,0.962,0.610,1.216,0.858,0.379,0.669,0.633,��,8.8,��
2021/02/09,13:30,0.669,0.963,0.613,1.214,0.856,0.378,0.671,0.634,���k��,7.4,��
2021/02/09,13:40,0.670,0.963,0.611,1.216,0.857,0.379,0.671,0.633,�k��,5.6,��
2021/02/09,13:50,0.671,0.960,0.613,1.215,0.856,0.378,0.671,0.634,�k�k��,6.5,��
2021/02/09,14:00,0.669,0.963,0.612,1.217,0.854,0.379,0.672,0.634,�k��,7.9,��
2021/02/09,14:10,0.670,0.963,0.612,1.215,0.857,0.379,0.673,0.633,���k��,7.2,��
2021/02/09,14:20,0.670,0.962,0.611,1.217,0.855,0.379,0.672,0.632,���k��,8.1,��
2021/02/09,14:30,0.670,0.965,0.611,1.219,0.857,0.381,0.672,0.630,���k��,7.2,��
2021/02/09,14:40,0.671,0.965,0.612,1.216,0.856,0.379,0.672,0.630,�k��,5.0,��
2021/02/09,14:50,0.671,0.964,0.611,1.216,0.857,0.378,0.672,0.630,�k�k��,5.0,��
2021/02/09,15:00,0.669,0.966,0.614,1.216,0.856,0.379,0.675,0.631,�k��,6.8,��
2021/02/09,15:10,0.669,0.966,0.612,1.216,0.855,0.380,0.673,0.631,�k��,6.5,��
2021/02/09,15:20,0.668,0.962,0.613,1.215,0.857,0.378,0.673,0.633,�k�k��,7.1,��
2021/02/09,15:30,0.669,0.962,0.612,1.217,0.856,0.378,0.674,0.634,�k�k��,8.6,��
2021/02/09,15:40,0.666,0.966,0.610,1.215,0.858,0.380,0.674,0.634,�k�k��,8.4,��
2021/02/09,15:50,0.668,0.968,0.612,1.217,0.858,0.379,0.674,0.633,�k�k��,7.8,��
2021/02/09,16:00,0.667,0.968,0.613,1.218,0.858,0.380,0.673,0.632,�k�k��,7.6,��
2021/02/09,16:10,0.670,0.965,0.611,1.215,0.858,0.380,0.672,0.632,�k�k��,8.3,��
2021/02/09,16:20,0.668,0.965,0.613,1.217,0.856,0.378,0.673,0.634,�k�k��,7.5,��
2021/02/09,16:30,0.669,0.965,0.610,1.217,0.855,0.379,0.674,0.634,�k�k��,7.0,��
2021/02/09,16:40,0.669,0.966,0.610,1.215,0.858,0.379,0.674,0.633,�k�k��,6.0,��
2021/02/09,16:50,0.668,0.967,0.611,1.216,0.858,0.377,0.672,0.632,�k�k��,5.9,��
2021/02/09,17:00,0.668,0.966,0.611,1.216,0.858,0.379,0.673,0.632,�k�k��,6.0,��
2021/02/09,17:10,0.668,0.966,0.611,1.216,0.858,0.379,0.672,0.633,�k�k��,5.5,��
2021/02/09,17:20,0.668,0.966,0.612,1.217,0.859,0.378,0.672,0.632,�k,7.0,��
2021/02/09,17:30,0.668,0.965,0.613,1.218,0.860,0.379,0.673,0.632,�k�k��,6.7,��
2021/02/09,17:40,0.667,0.966,0.610,1.217,0.857,0.378,0.672,0.632,�k,6.5,��
2021/02/09,17:50,0.667,0.964,0.612,1.216,0.858,0.376,0.670,0.633,�k,6.2,��
2021/02/09,18:00,0.665,0.966,0.612,1.215,0.859,0.376,0.670,0.632,�k,5.6,��
2021/02/09,18:10,0.669,0.963,0.610,1.217,0.859,0.376,0.672,0.633,�k,5.3,��
2021/02/09,18:20,0.666,0.964,0.612,1.218,0.858,0.377,0.671,0.632,�k,5.0,��
2021/02/09,18:30,0.666,0.965,0.609,1.217,0.860,0.376,0.671,0.633,�k,5.9,��
2021/02/09,18:40,0.667,0.965,0.610,1.215,0.859,0.376,0.671,0.633,�k,6.6,��
2021/02/09,18:50,0.666,0.967,0.611,1.216,0.859,0.377,0.671,0.632,�k,6.5,��
2021/02/09,19:00,0.668,0.964,0.611,1.217,0.858,0.378,0.671,0.631,�k�k��,2.6,��
2021/02/09,19:10,0.668,0.966,0.611,1.217,0.856,0.378,0.670,0.632,�k��,2.6,��
2021/02/09,19:20,0.668,0.965,0.610,1.217,0.858,0.378,0.670,0.631,���k��,2.2,��
2021/02/09,19:30,0.666,0.963,0.610,1.217,0.856,0.378,0.672,0.634,��,2.3,��
2021/02/09,19:40,0.667,0.964,0.610,1.215,0.859,0.379,0.673,0.631,���k��,1.7,��
2021/02/09,19:50,0.668,0.966,0.611,1.215,0.858,0.378,0.672,0.632,�k�k��,1.1,��
2021/02/09,20:00,0.667,0.964,0.610,1.215,0.859,0.380,0.671,0.631,�k��,0.9,��
2021/02/09,20:10,0.667,0.966,0.610,1.215,0.859,0.378,0.671,0.632,-,CALM,��
2021/02/09,20:20,0.669,0.965,0.611,1.216,0.859,0.380,0.671,0.631,�k�k��,1.7,��
2021/02/09,20:30,0.667,0.964,0.612,1.215,0.859,0.379,0.672,0.633,�k��,1.1,��
2021/02/09,20:40,0.667,0.963,0.612,1.217,0.855,0.378,0.671,0.633,��,2.6,��
2021/02/09,20:50,0.667,0.964,0.610,1.216,0.859,0.381,0.672,0.632,��쓌,1.4,��
2021/02/09,21:00,0.668,0.962,0.610,1.217,0.858,0.380,0.670,0.633,���쓌,2.0,��
2021/02/09,21:10,0.667,0.967,0.611,1.217,0.856,0.379,0.671,0.633,���쓌,1.1,��
2021/02/09,21:20,0.667,0.965,0.612,1.217,0.857,0.379,0.669,0.632,���k��,1.4,��
2021/02/09,21:30,0.669,0.964,0.611,1.215,0.857,0.378,0.672,0.633,�k,1.5,��
2021/02/09,21:40,0.667,0.965,0.611,1.217,0.858,0.379,0.669,0.633,�k�k��,2.3,��
2021/02/09,21:50,0.667,0.963,0.610,1.218,0.856,0.378,0.671,0.632,��,0.8,��
2021/02/09,22:00,0.668,0.965,0.609,1.217,0.858,0.380,0.672,0.634,-,CALM,��
2021/02/09,22:10,0.669,0.964,0.611,1.216,0.858,0.378,0.671,0.632,-,CALM,��
2021/02/09,22:20,0.667,0.965,0.610,1.218,0.859,0.379,0.671,0.632,�k��,3.4,��
2021/02/09,22:30,0.668,0.964,0.612,1.217,0.859,0.379,0.673,0.631,���k��,4.3,��
2021/02/09,22:40,0.667,0.964,0.611,1.214,0.859,0.377,0.671,0.633,���k��,4.0,��
2021/02/09,22:50,0.664,0.963,0.610,1.217,0.856,0.378,0.673,0.632,�k�k��,4.2,��
2021/02/09,23:00,0.667,0.966,0.610,1.217,0.856,0.378,0.672,0.630,�k,4.1,��
2021/02/09,23:10,0.668,0.965,0.611,1.217,0.858,0.378,0.672,0.631,�k,2.2,��
2021/02/09,23:20,0.668,0.965,0.610,1.216,0.858,0.380,0.670,0.631,�k��,1.7,��
2021/02/09,23:30,0.669,0.963,0.612,1.214,0.857,0.379,0.673,0.633,�k��,2.3,��
2021/02/09,23:40,0.668,0.965,0.612,1.217,0.856,0.377,0.672,0.633,���k��,1.4,��
2021/02/09,23:50,0.669,0.965,0.610,1.216,0.856,0.378,0.670,0.632,�k�k��,1.2,��
